STARLINK-4419 (53211 NORAD) Tracking and Keplerian Element Data

This shows tracking and keplerian element data for the satellite.

Feedback or suggestion? Click here.




ElementValue
Catalog53211
NameSTARLINK-4419
Epoch Orbit1080
Epoch Day269.75130457
Epoch Year2022
RAAN329.5812
Inclination97.6518
Eccentricity0.0002182
Argument of Perigee131.3333
Mean Anonmoly228.8079
Mean Motion15.01258847
Decay Rate-6.67E-06
L11 53211U 22084Y 22269.75130457 -.00000667 00000+0 -47354-4 0 9998
L22 53211 97.6518 329.5812 0002182 131.3333 228.8079 15.01258847 10806

Live tracking and technical data element details for STARLINK-4419 (NORAD 53211). STARLINK-4419 can be tracked NOW for your location showing map with azimuth and elevation plus other details from your city location.

Track the satellite on the map from your city or location and see movement details for azimuth, elevation, latitude, longitude, range, height, and movement on the map or in text.







IsCatalogInMostPopularTable: catalog: 53211, numindb: 2
Update: records affected: 1



GetName: 53211 STARLINK-4419

Hit Count: updated at: Fri, 30 Sep 2022 02:46:43 GMT